Home   Weather   Darlington   Past weeks
Flag for United Kingdom

Past Weather in Darlington, England, United Kingdom — Yesterday and Last 2 Weeks

Now
46 °F

Passing clouds.


Feels Like: 41 °F
Forecast: 54 / 47 °F
Wind: 10 mph from South

Location: Tees-Side

Current Time: Oct 14, 2019 at 6:42:15 am

Latest Report: Oct 14, 2019 at 5:50 am


Visibility: N/A

Pressure: 29.80 "Hg

Humidity: 93%

Dew Point: 45 °F

Location of DarlingtonLocation

Past Weather in Darlington — Graph

°F

Darlington Temperature Yesterday

Maximum temperature yesterday: 52 °F (at 11:20 am)
Minimum temperature yesterday: 45 °F (at 5:50 am)
Average temperature yesterday: 49 °F

High & Low Weather Summary for the Past Weeks

 TemperatureHumidityPressure
High61 °F (Sep 30, 11:50 am)100% (Sep 29, 5:20 am)30.15 "Hg (Sep 29, 5:20 am)
Low32 °F (Oct 3, 6:50 am)58% (Oct 2, 12:50 pm)29.33 "Hg (Sep 29, 5:50 am)
Average51 °F85%29.69 "Hg
* Reported Sep 28 9:20 pm — Oct 13 9:50 pm, Darlington. Weather by CustomWeather, © 2019

Note: Actual official high and low records may vary slightly from our data, if they occured in-between our weather recording intervals... More about our weather records

Advertising

Darlington Weather History for the Previous 24 Hours

Scroll right to see more
 ConditionsComfort  
Time TempWeatherWind HumidityBarometerVisibility
9:50 pm
Sun, Oct 13
50 °FPassing clouds.10 mph94%29.65 "HgN/A
9:20 pm50 °FPassing clouds.9 mph94%29.62 "Hg4 mi
8:50 pm50 °FLight rain. Fog.5 mph94%29.62 "Hg2 mi
8:20 pm50 °FPassing clouds.3 mph100%29.59 "Hg4 mi
7:50 pm50 °FPassing clouds.2 mph94%29.59 "Hg4 mi
6:50 pm50 °FLight rain. Passing clouds.3 mph100%29.56 "Hg4 mi
6:20 pm50 °FFog.2 mph100%29.53 "Hg2 mi
5:50 pm50 °FScattered clouds.1 mph100%29.53 "Hg4 mi
5:20 pm50 °FLight rain. Scattered clouds.3 mph100%29.50 "Hg4 mi
4:50 pm50 °FRain. Partly sunny.2 mph100%29.50 "Hg3 mi
3:50 pm50 °FRain. Fog.3 mph100%29.50 "Hg2 mi
3:20 pm50 °FRain. Fog.6 mph100%29.50 "Hg2 mi
2:50 pm50 °FLight rain. Fog.6 mph100%29.50 "Hg3 mi
2:20 pm52 °FLight rain. Fog.7 mph94%29.50 "Hg3 mi
1:50 pm52 °FLight rain. Fog.6 mph94%29.50 "Hg2 mi
1:20 pm52 °FLight rain. Fog.6 mph94%29.50 "Hg3 mi
12:50 pm52 °FLight rain. Fog.8 mph100%29.50 "Hg3 mi
12:20 pm52 °FRain. Fog.7 mph100%29.53 "Hg3 mi
11:50 am52 °FRain. Fog.6 mph94%29.53 "Hg2 mi
11:20 am52 °FLight rain. Fog.5 mph94%29.56 "Hg3 mi
10:50 am50 °FScattered clouds.5 mph100%29.56 "Hg4 mi
10:20 am50 °FBroken clouds.5 mph100%29.56 "Hg4 mi
9:50 am50 °FFog.5 mph94%29.59 "Hg3 mi
9:20 am48 °FFog.1 mph100%29.59 "Hg3 mi
8:50 am48 °FFog.3 mph100%29.59 "Hg3 mi
8:20 am46 °FFog.3 mph100%29.59 "Hg3 mi
7:50 am46 °FFog.6 mph100%29.62 "Hg3 mi
7:20 am46 °FFog.3 mph93%29.62 "Hg2 mi
6:50 am45 °FPassing clouds.6 mph93%29.62 "Hg4 mi
6:20 am45 °FPartly cloudy.1 mph100%29.62 "Hg4 mi
Weather by CustomWeather, © 2019

See weather overview